| time (UTC) | temp F | wind direction | speed MPH | gust MPH | rain 1hr in | rain 24hr in | rain mn in | humidity % | barometer mb |
| 20260504110410 | 49 | 320 | 0.0 | 1.0 | 0.00 | 0.00 | 0.00 | 76 | 1001.9 |
| 20260504100326 | 47 | 319 | 1.0 | 1.0 | 0.00 | 0.00 | 0.00 | 84 | 1002.4 |
| 20260504081720 | 49 | 319 | 0.0 | 0.0 | 0.00 | 0.00 | 0.00 | 77 | 1003.3 |
| 20260504081216 | 49 | 319 | 0.0 | 0.0 | 0.00 | 0.00 | 0.00 | 77 | 1003.5 |
| 20260504080713 | 49 | 319 | 0.0 | 1.0 | 0.00 | 0.00 | 0.00 | 74 | 1003.5 |
| 20260504080209 | 48 | 319 | 1.0 | 1.0 | 0.00 | 0.00 | 0.00 | 77 | 1003.7 |
| 20260504070137 | 49 | 318 | 0.0 | 0.0 | 0.00 | 0.00 | 0.00 | 80 | 1004.7 |
| 20260504050526 | 49 | 317 | 0.0 | 0.0 | 0.00 | 0.00 | 0.00 | 81 | 1005.8 |
| 20260504050023 | 49 | 317 | 0.0 | 0.0 | 0.00 | 0.00 | 0.00 | 81 | 1005.8 |
| 20260504045519 | 49 | 317 | 0.0 | 0.0 | 0.00 | 0.00 | 0.00 | 78 | 1005.9 |
| 20260504045015 | 49 | 317 | 0.0 | 0.0 | 0.00 | 0.00 | 0.00 | 77 | 1006.1 |
| 20260504044513 | 49 | 317 | 0.0 | 0.0 | 0.00 | 0.00 | 0.00 | 75 | 1005.9 |
| 20260504044009 | 50 | 317 | 0.0 | 0.0 | 0.00 | 0.00 | 0.00 | 78 | 1006.2 |
| 20260504043506 | 50 | 317 | 0.0 | 0.0 | 0.00 | 0.00 | 0.00 | 78 | 1005.9 |
| 20260504043004 | 50 | 317 | 0.0 | 0.0 | 0.00 | 0.00 | 0.00 | 77 | 1006.0 |
| 20260504042501 | 51 | 317 | 0.0 | 0.0 | 0.00 | 0.00 | 0.00 | 78 | 1005.9 |
| 20260504041957 | 51 | 317 | 0.0 | 0.0 | 0.00 | 0.00 | 0.00 | 76 | 1006.1 |
| 20260504041453 | 51 | 317 | 0.0 | 0.0 | 0.00 | 0.00 | 0.00 | 75 | 1006.1 |
| 20260504040949 | 51 | 317 | 0.0 | 0.0 | 0.00 | 0.00 | 0.00 | 74 | 1006.1 |
| 20260504040447 | 52 | 317 | 0.0 | 0.0 | 0.00 | 0.00 | 0.00 | 71 | 1006.1 |
| 20260504035943 | 52 | 317 | 0.0 | 0.0 | 0.00 | 0.00 | 0.00 | 70 | 1006.1 |
| 20260504035441 | 53 | 317 | 0.0 | 0.0 | 0.00 | 0.00 | 0.00 | 69 | 1006.4 |
| 20260504034937 | 54 | 317 | 0.0 | 0.0 | 0.00 | 0.00 | 0.00 | 67 | 1006.4 |
| 20260504034435 | 55 | 317 | 0.0 | 0.0 | 0.00 | 0.00 | 0.00 | 64 | 1006.5 |
| 20260504033932 | 55 | 317 | 0.0 | 0.0 | 0.00 | 0.00 | 0.00 | 63 | 1006.5 |
| 20260504033429 | 56 | 317 | 0.0 | 0.0 | 0.00 | 0.00 | 0.00 | 61 | 1006.9 |
| 20260504032926 | 58 | 317 | 0.0 | 0.0 | 0.00 | 0.00 | 0.00 | 54 | 1006.7 |
| 20260504032423 | 59 | 317 | 0.0 | 0.0 | 0.00 | 0.00 | 0.00 | 51 | 1006.9 |
| 20260504031920 | 60 | 317 | 0.0 | 0.0 | 0.00 | 0.00 | 0.00 | 43 | 1006.9 |
| 20260504031417 | 60 | 317 | 0.0 | 0.0 | 0.00 | 0.00 | 0.00 | 43 | 1006.8 |
| 20260504030914 | 59 | 317 | 0.0 | 0.0 | 0.00 | 0.00 | 0.00 | 44 | 1006.9 |
| 20260504030411 | 59 | 317 | 0.0 | 0.0 | 0.00 | 0.00 | 0.00 | 44 | 1006.8 |
| 20260504025906 | 58 | 317 | 0.0 | 0.0 | 0.00 | 0.00 | 0.00 | 44 | 1006.9 |
| 20260504025404 | 59 | 317 | 0.0 | 0.0 | 0.00 | 0.00 | 0.00 | 45 | 1007.1 |
| 20260504024900 | 59 | 316 | 0.0 | 0.0 | 0.00 | 0.00 | 0.00 | 49 | 1007.1 |
| 20260504024356 | 60 | 316 | 0.0 | 0.0 | 0.00 | 0.00 | 0.00 | 43 | 1006.9 |
| 20260504023854 | 61 | 316 | 0.0 | 0.0 | 0.00 | 0.00 | 0.00 | 41 | 1006.8 |
| 20260504023350 | 61 | 316 | 0.0 | 0.0 | 0.00 | 0.00 | 0.00 | 39 | 1007.0 |
| 20260504022846 | 62 | 316 | 0.0 | 0.0 | 0.00 | 0.00 | 0.00 | 39 | 1006.8 |
| 20260504022343 | 62 | 316 | 0.0 | 0.0 | 0.00 | 0.00 | 0.00 | 38 | 1007.1 |
| 20260504021839 | 63 | 316 | 0.0 | 1.0 | 0.00 | 0.00 | 0.00 | 37 | 1006.9 |
| 20260504021337 | 63 | 315 | 0.0 | 1.0 | 0.00 | 0.00 | 0.00 | 37 | 1007.0 |
| 20260504020834 | 63 | 315 | 0.0 | 0.0 | 0.00 | 0.00 | 0.00 | 36 | 1007.0 |
| 20260504020331 | 64 | 315 | 0.0 | 0.0 | 0.00 | 0.00 | 0.00 | 35 | 1006.8 |
| 20260504015827 | 64 | 314 | 0.0 | 1.0 | 0.00 | 0.00 | 0.00 | 35 | 1006.7 |
| 20260504015323 | 64 | 313 | 0.0 | 0.0 | 0.00 | 0.00 | 0.00 | 35 | 1006.8 |
| 20260504014819 | 65 | 312 | 1.0 | 1.0 | 0.00 | 0.00 | 0.00 | 34 | 1006.9 |
| 20260504014315 | 65 | 310 | 0.0 | 0.0 | 0.00 | 0.00 | 0.00 | 34 | 1006.7 |
| 20260504013814 | 66 | 307 | 0.0 | 1.0 | 0.00 | 0.00 | 0.00 | 34 | 1006.8 |
| 20260504013311 | 66 | 303 | 0.0 | 0.0 | 0.00 | 0.00 | 0.00 | 33 | 1006.8 |
| 20260504012807 | 67 | 297 | 1.0 | 1.0 | 0.00 | 0.00 | 0.00 | 32 | 1006.7 |
| 20260504012305 | 68 | 302 | 0.0 | 1.0 | 0.00 | 0.00 | 0.00 | 31 | 1006.8 |
| 20260504011803 | 68 | 303 | 0.0 | 0.0 | 0.00 | 0.00 | 0.00 | 30 | 1006.6 |
| 20260504011259 | 68 | 295 | 1.0 | 2.0 | 0.00 | 0.00 | 0.00 | 29 | 1006.7 |
| 20260504010754 | 69 | 297 | 1.0 | 1.0 | 0.00 | 0.00 | 0.00 | 29 | 1006.6 |
| 20260504010250 | 69 | 274 | 1.0 | 1.0 | 0.00 | 0.00 | 0.00 | 28 | 1006.8 |
| 20260504005747 | 70 | 286 | 2.0 | 2.0 | 0.00 | 0.00 | 0.00 | 28 | 1006.7 |
| 20260504005244 | 70 | 285 | 2.0 | 2.0 | 0.00 | 0.00 | 0.00 | 27 | 1006.7 |
| 20260504004742 | 70 | 311 | 1.0 | 2.0 | 0.00 | 0.00 | 0.00 | 27 | 1006.7 |
| 20260504004239 | 71 | 311 | 1.0 | 1.0 | 0.00 | 0.00 | 0.00 | 27 | 1006.8 |
| 20260504003735 | 71 | 311 | 1.0 | 1.0 | 0.00 | 0.00 | 0.00 | 25 | 1006.7 |
| 20260504003232 | 71 | 311 | 0.0 | 1.0 | 0.00 | 0.00 | 0.00 | 25 | 1006.9 |
| 20260504002729 | 72 | 307 | 2.0 | 2.0 | 0.00 | 0.00 | 0.00 | 25 | 1006.7 |
| 20260504002225 | 72 | 300 | 2.0 | 2.0 | 0.00 | 0.00 | 0.00 | 25 | 1006.8 |
| 20260504001723 | 72 | 306 | 1.0 | 1.0 | 0.00 | 0.00 | 0.00 | 25 | 1006.8 |
| 20260504001220 | 73 | 210 | 7.0 | 8.0 | 0.00 | 0.00 | 0.00 | 23 | 1006.7 |
| 20260504000717 | 72 | 285 | 2.0 | 2.0 | 0.00 | 0.00 | 0.00 | 23 | 1006.8 |
| 20260504000214 | 73 | 267 | 2.0 | 2.0 | 0.00 | 0.00 | 0.00 | 24 | 1006.8 |
| 20260503235712 | 73 | 263 | 3.0 | 3.0 | 0.00 | 0.00 | 0.00 | 25 | 1006.8 |
| 20260503235209 | 74 | 297 | 2.0 | 2.0 | 0.00 | 0.00 | 0.00 | 25 | 1006.8 |
| 20260503234706 | 75 | 313 | 0.0 | 1.0 | 0.00 | 0.00 | 0.00 | 23 | 1006.6 |
| 20260503234205 | 75 | 310 | 3.0 | 5.0 | 0.00 | 0.00 | 0.00 | 25 | 1006.8 |
| 20260503233701 | 74 | 309 | 1.0 | 1.0 | 0.00 | 0.00 | 0.00 | 24 | 1007.0 |
| 20260503233157 | 74 | 237 | 5.0 | 6.0 | 0.00 | 0.00 | 0.00 | 24 | 1006.7 |
| 20260503232654 | 75 | 311 | 2.0 | 2.0 | 0.00 | 0.00 | 0.00 | 23 | 1007.0 |
| 20260503232152 | 74 | 296 | 2.0 | 2.0 | 0.00 | 0.00 | 0.00 | 26 | 1006.8 |
| 20260503231650 | 74 | 321 | 2.0 | 2.0 | 0.00 | 0.00 | 0.00 | 23 | 1007.0 |
| 20260503231145 | 74 | 314 | 1.0 | 2.0 | 0.00 | 0.00 | 0.00 | 27 | 1007.0 |
| 20260503230642 | 75 | 306 | 1.0 | 1.0 | 0.00 | 0.00 | 0.00 | 25 | 1006.9 |
| 20260503230140 | 75 | 279 | 1.0 | 2.0 | 0.00 | 0.00 | 0.00 | 23 | 1007.0 |
| 20260503225637 | 75 | 290 | 1.0 | 1.0 | 0.00 | 0.00 | 0.00 | 22 | 1007.0 |
| 20260503225136 | 75 | 322 | 1.0 | 2.0 | 0.00 | 0.00 | 0.00 | 21 | 1007.2 |
| 20260503224634 | 75 | 305 | 3.0 | 3.0 | 0.00 | 0.00 | 0.00 | 21 | 1007.0 |
| 20260503224132 | 75 | 302 | 2.0 | 3.0 | 0.00 | 0.00 | 0.00 | 24 | 1006.9 |
| 20260503223630 | 76 | 290 | 5.0 | 6.0 | 0.00 | 0.00 | 0.00 | 22 | 1007.0 |
| 20260503223126 | 77 | 318 | 3.0 | 3.0 | 0.00 | 0.00 | 0.00 | 21 | 1007.2 |
| 20260503222624 | 75 | 318 | 1.0 | 1.0 | 0.00 | 0.00 | 0.00 | 25 | 1007.1 |
| 20260503222121 | 74 | 339 | 2.0 | 2.0 | 0.00 | 0.00 | 0.00 | 24 | 1007.0 |
| 20260503221619 | 74 | 337 | 2.0 | 3.0 | 0.00 | 0.00 | 0.00 | 24 | 1007.2 |
| 20260503221116 | 75 | 236 | 5.0 | 6.0 | 0.00 | 0.00 | 0.00 | 23 | 1007.3 |
| 20260503220613 | 74 | 310 | 2.0 | 2.0 | 0.00 | 0.00 | 0.00 | 27 | 1007.1 |
| 20260503220110 | 74 | 321 | 3.0 | 3.0 | 0.00 | 0.00 | 0.00 | 24 | 1007.2 |
| 20260503215607 | 74 | 298 | 2.0 | 2.0 | 0.00 | 0.00 | 0.00 | 24 | 1007.2 |
| 20260503215103 | 73 | 325 | 4.0 | 5.0 | 0.00 | 0.00 | 0.00 | 24 | 1007.1 |
| 20260503214602 | 73 | 310 | 6.0 | 7.0 | 0.00 | 0.00 | 0.00 | 24 | 1007.3 |
| 20260503214058 | 74 | 317 | 1.0 | 1.0 | 0.00 | 0.00 | 0.00 | 25 | 1007.2 |
| 20260503213557 | 74 | 305 | 1.0 | 1.0 | 0.00 | 0.00 | 0.00 | 28 | 1007.3 |
| 20260503213053 | 74 | 246 | 3.0 | 3.0 | 0.00 | 0.00 | 0.00 | 26 | 1007.3 |
| 20260503212550 | 74 | 324 | 2.0 | 3.0 | 0.00 | 0.00 | 0.00 | 26 | 1007.3 |
| 20260503212047 | 75 | 288 | 2.0 | 5.0 | 0.00 | 0.00 | 0.00 | 24 | 1007.3 |
| 20260503211545 | 75 | 338 | 2.0 | 2.0 | 0.00 | 0.00 | 0.00 | 25 | 1007.3 |
| 20260503211040 | 76 | 301 | 2.0 | 2.0 | 0.00 | 0.00 | 0.00 | 26 | 1007.4 |
| 20260503210537 | 76 | 323 | 3.0 | 3.0 | 0.00 | 0.00 | 0.00 | 26 | 1007.4 |
| 20260503210033 | 75 | 336 | 6.0 | 8.0 | 0.00 | 0.00 | 0.00 | 25 | 1007.3 |
| 20260503205530 | 75 | 306 | 3.0 | 3.0 | 0.00 | 0.00 | 0.00 | 25 | 1007.4 |
| 20260503205026 | 75 | 306 | 2.0 | 2.0 | 0.00 | 0.00 | 0.00 | 25 | 1007.3 |
| 20260503204523 | 77 | 283 | 2.0 | 3.0 | 0.00 | 0.00 | 0.00 | 27 | 1007.6 |
| 20260503204020 | 75 | 294 | 1.0 | 2.0 | 0.00 | 0.00 | 0.00 | 27 | 1007.3 |
| 20260503203517 | 75 | 309 | 3.0 | 3.0 | 0.00 | 0.00 | 0.00 | 25 | 1007.4 |
| 20260503203014 | 75 | 292 | 4.0 | 5.0 | 0.00 | 0.00 | 0.00 | 26 | 1007.4 |
| 20260503202512 | 75 | 208 | 5.0 | 7.0 | 0.00 | 0.00 | 0.00 | 25 | 1007.4 |
| 20260503202010 | 76 | 247 | 4.0 | 5.0 | 0.00 | 0.00 | 0.00 | 24 | 1007.9 |
| 20260503201508 | 76 | 317 | 3.0 | 3.0 | 0.00 | 0.00 | 0.00 | 27 | 1007.7 |
| 20260503201005 | 75 | 288 | 3.0 | 3.0 | 0.00 | 0.00 | 0.00 | 29 | 1008.0 |
| 20260503200501 | 76 | 322 | 1.0 | 3.0 | 0.00 | 0.00 | 0.00 | 30 | 1007.9 |
| 20260503195957 | 76 | 298 | 3.0 | 5.0 | 0.00 | 0.00 | 0.00 | 27 | 1008.1 |
| 20260503195455 | 75 | 276 | 7.0 | 10.0 | 0.00 | 0.00 | 0.00 | 25 | 1008.0 |
| 20260503194951 | 76 | 325 | 3.0 | 5.0 | 0.00 | 0.00 | 0.00 | 25 | 1007.9 |
| 20260503194449 | 74 | 11 | 5.0 | 6.0 | 0.00 | 0.00 | 0.00 | 26 | 1008.1 |
| 20260503193944 | 75 | 298 | 4.0 | 6.0 | 0.00 | 0.00 | 0.00 | 26 | 1008.2 |
| 20260503193439 | 75 | 325 | 2.0 | 3.0 | 0.00 | 0.00 | 0.00 | 25 | 1008.1 |
| 20260503192935 | 75 | 283 | 2.0 | 2.0 | 0.00 | 0.00 | 0.00 | 32 | 1008.0 |
| 20260503192432 | 75 | 290 | 5.0 | 8.0 | 0.00 | 0.00 | 0.00 | 28 | 1008.1 |
| 20260503191927 | 75 | 261 | 2.0 | 3.0 | 0.00 | 0.00 | 0.00 | 29 | 1008.0 |
| 20260503191425 | 75 | 276 | 2.0 | 3.0 | 0.00 | 0.00 | 0.00 | 26 | 1008.0 |
| 20260503190921 | 75 | 315 | 1.0 | 2.0 | 0.00 | 0.00 | 0.00 | 33 | 1008.4 |
| 20260503190419 | 75 | 291 | 5.0 | 6.0 | 0.00 | 0.00 | 0.00 | 30 | 1008.2 |
| 20260503185915 | 75 | 236 | 6.0 | 7.0 | 0.00 | 0.00 | 0.00 | 28 | 1008.0 |
| 20260503185413 | 75 | 232 | 5.0 | 7.0 | 0.00 | 0.00 | 0.00 | 29 | 1008.2 |
| 20260503184911 | 74 | 262 | 3.0 | 3.0 | 0.00 | 0.00 | 0.00 | 31 | 1008.4 |
| 20260503184408 | 74 | 257 | 3.0 | 3.0 | 0.00 | 0.00 | 0.00 | 32 | 1008.2 |
| 20260503183904 | 74 | 274 | 3.0 | 5.0 | 0.00 | 0.00 | 0.00 | 29 | 1008.2 |
| 20260503183401 | 73 | 282 | 3.0 | 5.0 | 0.00 | 0.00 | 0.00 | 32 | 1008.2 |
| 20260503182858 | 74 | 302 | 5.0 | 6.0 | 0.00 | 0.00 | 0.00 | 29 | 1008.1 |
| 20260503182357 | 74 | 289 | 1.0 | 3.0 | 0.00 | 0.00 | 0.00 | 33 | 1008.4 |
| 20260503181854 | 73 | 343 | 4.0 | 7.0 | 0.00 | 0.00 | 0.00 | 29 | 1008.2 |
| 20260503181351 | 73 | 295 | 3.0 | 5.0 | 0.00 | 0.00 | 0.00 | 31 | 1008.2 |
| 20260503180847 | 74 | 320 | 4.0 | 5.0 | 0.00 | 0.00 | 0.00 | 30 | 1008.5 |
| 20260503180345 | 74 | 316 | 2.0 | 2.0 | 0.00 | 0.00 | 0.00 | 31 | 1008.4 |
| 20260503175842 | 73 | 290 | 9.0 | 10.0 | 0.00 | 0.00 | 0.00 | 28 | 1008.6 |
| 20260503175340 | 72 | 273 | 5.0 | 6.0 | 0.00 | 0.00 | 0.00 | 29 | 1008.4 |
| 20260503174835 | 73 | 314 | 3.0 | 5.0 | 0.00 | 0.00 | 0.00 | 31 | 1008.5 |
| 20260503174333 | 72 | 280 | 2.0 | 3.0 | 0.00 | 0.00 | 0.00 | 31 | 1008.7 |
| 20260503173829 | 72 | 299 | 3.0 | 3.0 | 0.00 | 0.00 | 0.00 | 30 | 1008.6 |
| 20260503173325 | 72 | 236 | 5.0 | 8.0 | 0.00 | 0.00 | 0.00 | 31 | 1008.7 |
| 20260503172822 | 71 | 326 | 5.0 | 7.0 | 0.00 | 0.00 | 0.00 | 32 | 1008.4 |
| 20260503172320 | 72 | 306 | 4.0 | 6.0 | 0.00 | 0.00 | 0.00 | 32 | 1008.3 |
| 20260503171815 | 70 | 307 | 2.0 | 3.0 | 0.00 | 0.00 | 0.00 | 33 | 1008.2 |
| 20260503171313 | 69 | 305 | 4.0 | 5.0 | 0.00 | 0.00 | 0.00 | 33 | 1008.1 |
| 20260503170810 | 69 | 308 | 3.0 | 3.0 | 0.00 | 0.00 | 0.00 | 34 | 1008.2 |
| 20260503170306 | 69 | 348 | 3.0 | 5.0 | 0.00 | 0.00 | 0.00 | 34 | 1008.6 |
| 20260503150658 | 65 | 228 | 4.0 | 6.0 | 0.00 | 0.00 | 0.00 | 43 | 1008.9 |
| 20260503150155 | 65 | 248 | 5.0 | 7.0 | 0.00 | 0.00 | 0.00 | 45 | 1008.8 |
| 20260503140119 | 60 | 297 | 2.0 | 2.0 | 0.00 | 0.00 | 0.00 | 48 | 1009.1 |
| 20260503131048 | 55 | 202 | 6.0 | 11.0 | 0.00 | 0.00 | 0.00 | 53 | 1008.7 |
| 20260503130545 | 55 | 216 | 6.0 | 9.0 | 0.00 | 0.00 | 0.00 | 54 | 1008.7 |